Elmira, NY

11:33 AM EDT on April 27, 2017 (GMT -0400)
Elmira-Corning Regional

Weather History for KELM - April, 2014

Change the Weather History Date:

Thursday, April 10, 2014

  Actual Average Record
Temperature  
Mean Temperature 46 °F -  
Max Temperature 70 °F 54 °F 82 °F (2017)
Min Temperature 21 °F 28 °F 12 °F (1985)
Degree Days  
Heating Degree Days 20    
Moisture  
Dew Point 26 °F    
Average Humidity 49    
Maximum Humidity 89    
Minimum Humidity 21    
Precipitation  
Precipitation 0.00 in - - ()
Sea Level Pressure  
Sea Level Pressure 29.96 in    
Wind  
Wind Speed 7 mph (SW)    
Max Wind Speed 22 mph    
Max Gust Speed 36 mph    
Visibility 10 miles    
Events      
Averages and records for this station are not official NWS values.
T = Trace of Precipitation, MM = Missing Value Source: NWS Daily Summary

Daily Weather History Graph

Daily Weather History Graph

Search for Another Location

Airport or City:

Trip Planner

Search our weather history database for the weather conditions in past years. The results will help you decide how hot, cold, wet, or windy it might be!

Date:

Astronomy

Apr. 10, 2014 Rise Set
Actual Time 6:35 AM EDT 7:43 PM EDT
Civil Twilight 6:06 AM EDT 8:12 PM EDT
Nautical Twilight 5:32 AM EDT 8:46 PM EDT
Astronomical Twilight 4:56 AM EDT 9:22 PM EDT
Moon 3:20 PM EDT (4/10) 4:01 AM EDT (4/10)
Length of Visible Light 14h 05m
Length of Day
13h 08m
Waxing Gibbous, 79% of the Moon is Illuminated
Apr 10
Waxing Gibbous
Apr 15
Full
Apr 22
Last Quarter
Apr 29
New
May 6
First Quarter

Hourly Weather History & Observations

Time (EDT) Temp. Dew Point Humidity Pressure Visibility Wind Dir Wind Speed Gust Speed Precip Events Conditions
12:53 AM 25.0 °F 19.0 °F 78% 30.06 in 10.0 mi Calm Calm - N/A   Clear
1:53 AM 25.0 °F 19.9 °F 81% 30.06 in 10.0 mi Calm Calm - N/A   Clear
2:53 AM 21.9 °F 17.1 °F 82% 30.05 in 10.0 mi Calm Calm - N/A   Clear
3:53 AM 23.0 °F 19.0 °F 85% 30.06 in 10.0 mi Calm Calm - N/A   Clear
4:53 AM 24.1 °F 19.0 °F 81% 30.07 in 10.0 mi Calm Calm - N/A   Clear
5:53 AM 21.0 °F 18.0 °F 88% 30.08 in 10.0 mi Calm Calm - N/A   Clear
6:53 AM 21.9 °F 19.0 °F 89% 30.10 in 10.0 mi Calm Calm - N/A   Clear
7:53 AM 28.0 °F 23.0 °F 81% 30.11 in 10.0 mi Calm Calm - N/A   Clear
8:53 AM 33.1 °F 25.0 °F 72% 30.11 in 10.0 mi Calm Calm - N/A   Clear
10:53 AM 57.0 °F 28.0 °F 33% 30.03 in 10.0 mi WSW 17.3 mph 24.2 mph N/A   Clear
11:53 AM 60.1 °F 30.0 °F 32% 30.00 in 10.0 mi SSW 20.7 mph 35.7 mph N/A   Clear
12:53 PM 64.0 °F 30.0 °F 28% 29.96 in 10.0 mi SW 19.6 mph 27.6 mph N/A   Clear
1:53 PM 66.0 °F 28.9 °F 25% 29.93 in 10.0 mi SW 21.9 mph 32.2 mph N/A   Clear
2:53 PM 68.0 °F 30.0 °F 24% 29.90 in 10.0 mi SSW 18.4 mph 29.9 mph N/A   Clear
3:53 PM 69.1 °F 28.9 °F 22% 29.87 in 10.0 mi SSW 19.6 mph 32.2 mph N/A   Clear
4:53 PM 70.0 °F 28.0 °F 21% 29.83 in 10.0 mi SSW 20.7 mph 33.4 mph N/A   Clear
5:53 PM 69.1 °F 28.0 °F 22% 29.82 in 10.0 mi SSW 17.3 mph 32.2 mph N/A   Clear
6:53 PM 66.9 °F 28.0 °F 23% 29.82 in 10.0 mi SSW 17.3 mph 24.2 mph N/A   Overcast
7:53 PM 64.9 °F 30.0 °F 27% 29.83 in 10.0 mi SSW 20.7 mph 28.8 mph 0.00 in   Overcast
8:53 PM 64.0 °F 30.9 °F 29% 29.84 in 10.0 mi SSW 15.0 mph 25.3 mph N/A   Overcast
9:53 PM 64.0 °F 30.0 °F 28% 29.85 in 10.0 mi SW 11.5 mph 29.9 mph 0.00 in   Overcast
10:53 PM 61.0 °F 30.0 °F 31% 29.83 in 10.0 mi SW 10.4 mph 18.4 mph N/A   Partly Cloudy
11:53 PM 59.0 °F 30.9 °F 35% 29.83 in 10.0 mi WNW 8.1 mph - N/A   Overcast